Lapse_Rate
3.1 2.7 1.6 2.8 6.3 6.5 6.5 6.5 6.5 6.5 6.5 5.2 5.7 5.9 6.4 6.2 6.5 6.5 7.0 6.7 5.3 5.5 5.0 4.9 5.5 6.1 5.9 5.8 5.9 6.0 5.9 5.9 6.1 6.4 6.4 6.4 6.2 6.2 6.3 6.4 6.6 6.7 6.3 6.2 6.0 6.1 6.0 6.0 5.8
2.6 4.0 2.5 2.3 6.5 6.5 6.5 6.5 6.5 6.5 6.0 4.3 5.9 5.8 6.3 6.5 7.1 7.0 6.2 7.9 6.8 6.0 5.0 4.6 5.4 6.1 6.2 6.0 5.9 6.0 6.0 6.2 6.3 6.3 6.3 6.2 6.4 6.4 6.5 6.7 7.0 7.0 6.5 6.2 5.9 5.6 5.4 5.3 5.3
2.8 5.3 3.3 6.5 6.5 6.5 6.5 6.5 6.5 6.3 5.1 5.6 6.0 5.1 6.1 6.2 6.5 5.2 6.1 6.3 7.7 7.2 6.2 5.2 5.9 6.1 6.2 6.1 6.1 6.2 6.2 6.3 6.1 6.2 6.0 6.1 6.3 6.3 6.2 6.4 6.5 6.6 6.6 6.0 5.7 5.5 5.2 5.1 5.1
3.8 2.8 2.7 6.5 6.5 6.5 6.5 6.5 6.2 6.3 6.2 6.1 5.3 6.4 5.9 6.8 5.8 5.0 5.0 6.7 6.1 6.2 6.3 5.9 6.0 6.0 5.8 5.9 6.0 6.0 6.1 6.2 6.0 5.9 5.9 6.2 6.2 6.4 6.2 6.2 6.3 6.3 6.3 6.3 5.8 5.5 5.5 5.2 5.0
2.6 2.3 6.5 6.5 6.5 6.5 6.5 5.8 5.8 6.5 5.6 5.9 6.0 6.4 6.0 6.2 4.9 4.2 4.0 5.4 5.0 4.6 5.2 5.7 5.5 5.6 5.6 5.6 5.9 6.0 6.1 6.2 6.1 6.1 6.2 6.3 6.3 6.1 5.9 5.7 5.8 6.1 6.1 6.1 6.1 6.0 5.6 5.4 5.3
3.4 2.9 6.5 6.5 6.5 6.5 6.3 4.4 5.5 5.6 5.8 5.8 5.8 5.9 6.1 5.4 4.6 3.2 4.3 2.7 2.7 2.2 3.6 4.3 4.5 4.8 4.9 5.0 5.3 5.7 6.0 6.2 6.2 6.1 6.2 6.5 6.4 6.1 6.0 5.9 5.9 6.0 6.2 6.1 6.0 5.9 5.8 5.5 5.5
6.0 6.5 6.5 6.5 6.5 6.5 6.5 4.6 6.0 6.1 5.6 5.8 5.4 6.5 5.7 5.5 4.4 3.9 3.6 3.0 2.7 3.1 4.0 3.6 3.8 4.0 4.5 4.5 4.8 5.2 5.9 6.0 6.0 6.0 6.0 6.0 6.1 6.3 6.5 6.3 6.1 6.1 6.1 6.0 5.9 6.0 5.9 5.7 5.6
3.2 6.2 6.5 6.5 6.5 6.5 6.3 5.9 6.0 5.7 6.1 6.3 5.9 6.3 6.0 4.9 4.9 3.8 3.4 2.4 3.2 3.0 3.8 4.1 4.1 4.0 4.0 3.9 4.0 4.4 5.0 5.2 4.6 4.2 4.9 5.1 5.4 6.0 5.9 6.5 6.4 6.3 6.1 6.1 6.0 5.8 5.8 5.7 5.7
5.6 6.5 6.5 6.5 6.5 6.5 5.5 6.4 6.1 5.9 5.9 5.7 5.5 5.0 3.0 3.9 4.7 3.6 3.8 4.6 4.1 3.1 4.0 4.0 4.3 4.4 4.4 4.3 4.7 4.2 4.1 3.7 4.1 4.4 4.3 5.2 5.3 5.2 4.4 5.0 5.1 6.8 6.2 6.2 6.2 6.0 5.8 5.7 5.6
5.2 6.5 6.5 6.5 6.4 6.5 5.6 5.8 5.9 6.2 5.6 6.0 4.9 4.3 4.1 4.2 4.5 3.6 3.9 3.9 4.4 4.7 4.0 4.1 3.3 3.4 4.2 4.7 4.3 4.7 4.6 4.6 5.0 4.0 4.5 4.8 5.5 5.0 4.5 3.4 4.5 5.3 5.8 5.9 6.2 6.2 6.1 5.7 5.1
6.2 6.5 6.5 6.4 5.8 5.7 6.1 5.4 5.5 6.3 6.5 5.8 5.0 4.1 4.2 4.0 4.0 3.8 4.2 4.3 4.1 4.0 3.6 3.9 3.3 3.9 3.8 4.0 4.6 5.1 5.4 5.1 5.3 5.4 5.1 4.9 5.6 5.2 4.7 4.4 4.5 5.4 5.7 5.7 6.3 5.9 5.6 5.3 4.9
6.5 5.9 6.2 6.3 5.7 5.9 6.3 5.4 5.3 5.7 4.8 5.6 4.0 3.0 4.0 4.4 4.4 4.1 3.5 3.9 3.6 3.7 3.8 3.8 3.7 3.7 3.9 3.8 3.8 4.6 4.8 4.5 4.3 5.2 5.3 4.9 3.9 4.7 4.9 5.4 5.7 5.4 5.6 5.7 5.6 4.8 5.0 5.6 5.6
6.5 6.4 6.1 5.8 5.9 5.9 5.8 5.8 6.0 4.8 4.3 6.0 4.0 4.0 3.8 4.4 4.4 4.0 3.6 3.1 2.9 3.7 3.7 3.1 3.2 3.1 3.6 2.8 3.1 3.6 3.5 3.7 3.9 4.2 4.5 4.4 3.3 2.5 3.9 4.2 4.5 4.6 5.1 4.2 3.4 3.9 3.9 3.7 4.3
6.3 5.9 5.4 5.4 5.9 6.2 6.3 6.1 5.9 5.2 3.8 5.8 3.9 4.2 4.1 4.6 4.1 3.4 3.4 2.8 3.2 3.5 3.5 3.3 3.5 3.7 4.2 2.6 2.9 2.5 3.5 3.6 3.7 3.7 3.9 3.9 3.3 2.6 2.3 2.4 2.9 3.4 4.1 4.4 4.2 3.7 3.6 3.8 4.1
6.0 6.5 6.4 6.0 5.6 6.5 5.7 6.5 6.5 4.8 5.0 5.2 5.1 4.6 4.6 4.4 3.9 3.4 3.5 3.0 2.6 3.0 3.1 3.8 4.0 4.0 3.0 2.6 2.9 2.7 3.0 3.2 2.7 2.7 3.4 3.6 3.4 3.1 2.6 2.1 2.3 2.6 3.6 3.7 3.7 3.5 3.2 2.5 3.0
6.5 6.5 6.5 6.5 6.1 6.3 6.2 6.5 6.5 4.2 4.7 4.6 4.7 4.6 4.3 4.6 4.5 4.1 3.5 3.2 3.0 2.5 3.7 3.9 4.6 3.5 2.8 2.4 2.5 2.9 2.9 2.9 2.5 2.4 2.9 3.4 3.2 3.2 2.4 1.8 2.0 3.2 3.7 3.3 2.5 2.1 2.2 2.2 2.5
6.5 6.5 6.5 6.5 6.2 6.5 6.5 6.5 6.4 5.1 4.7 4.3 3.6 3.9 4.1 4.4 4.6 3.9 3.7 3.4 2.9 2.5 2.6 2.9 3.0 3.2 3.3 3.0 2.5 2.3 2.4 1.8 1.7 2.4 2.6 2.7 2.7 2.8 2.2 1.7 2.1 3.0 2.9 2.5 2.9 2.7 2.4 2.2 2.3
6.5 6.5 6.5 6.5 6.5 6.5 6.5 6.5 6.5 4.0 4.5 3.6 2.5 2.6 3.5 3.8 4.6 4.0 3.5 3.5 3.0 2.7 2.3 2.2 2.2 2.6 2.3 1.7 1.8 1.5 1.3 1.5 2.1 2.2 2.4 2.8 2.7 2.9 2.7 2.4 2.8 3.5 2.9 3.2 3.7 4.0 3.4 3.8 3.3
6.5 6.5 6.5 6.5 6.5 6.5 6.5 6.5 6.5 4.9 4.6 4.0 2.4 2.1 3.0 3.5 3.8 3.8 4.0 3.5 2.9 2.7 2.4 2.2 2.0 1.7 1.6 0.9 1.1 1.3 1.3 1.3 1.3 2.7 3.3 3.4 3.4 3.2 2.8 2.3 2.5 2.9 2.8 3.3 4.4 4.4 4.6 4.4 4.6
6.5 6.5 6.5 6.5 6.5 6.5 6.5 6.5 6.5 6.4 5.6 4.7 3.4 2.1 3.4 3.2 3.8 4.4 3.8 3.5 3.6 2.6 2.3 2.0 2.0 1.5 1.1 0.7 0.9 1.1 1.2 1.3 1.7 2.6 3.0 3.6 3.9 3.7 3.9 2.6 2.4 2.9 2.9 3.4 3.9 4.4 4.7 4.9 6.0
6.5 6.5 6.5 6.5 6.5 6.5 6.5 6.5 6.5 6.4 5.4 4.5 4.4 2.8 3.5 4.0 4.4 4.5 4.4 3.2 2.7 2.5 2.0 2.1 1.8 1.5 1.1 1.1 0.8 0.8 1.1 1.3 1.6 1.6 1.8 2.7 3.7 3.9 3.8 3.5 2.8 2.6 2.9 3.3 3.9 4.2 5.2 5.5 5.5
6.5 6.5 6.5 6.5 6.5 6.5 6.5 6.5 6.5 6.5 6.5 6.5 5.6 3.4 2.3 4.0 4.7 4.5 4.4 3.0 2.6 2.4 2.0 2.0 1.9 1.6 1.2 0.8 0.5 0.6 0.4 0.9 1.1 1.6 2.0 2.1 3.2 3.6 4.0 3.8 3.5 3.0 3.1 3.5 3.7 5.4 5.1 6.3 6.8
6.5 6.5 6.5 6.5 6.5 6.5 6.5 6.5 6.5 6.5 6.5 6.5 6.3 3.4 1.7 3.0 4.2 4.5 4.2 3.5 3.0 2.4 1.7 1.7 1.5 1.6 1.1 0.7 0.3 -0.2 0.3 0.3 0.7 1.2 1.4 2.1 2.6 3.4 4.3 4.1 3.9 3.3 3.3 3.2 3.1 3.2 3.3 4.6 5.8
6.5 6.5 6.5 6.5 6.5 6.5 6.5 6.5 6.5 6.5 6.5 6.5 6.0 3.9 4.4 3.0 3.9 4.3 4.2 3.7 3.1 2.5 1.9 1.7 1.8 1.5 1.0 0.6 0.5 0.3 0.2 0.6 0.5 0.7 0.8 1.5 2.4 2.9 4.5 5.5 4.4 4.5 4.1 3.7 3.4 3.5 3.5 3.8 5.8
6.5 6.5 6.5 6.5 6.5 6.5 6.5 6.5 6.5 6.5 6.5 6.5 6.4 5.1 4.0 4.1 4.0 4.1 4.0 3.9 3.5 2.8 2.4 2.4 2.1 1.4 1.1 0.9 0.8 0.6 0.6 0.3 0.4 0.7 1.3 2.4 3.2 4.0 5.2 6.8 4.4 3.8 4.1 4.1 4.3 4.9 5.3 4.5 4.0
6.5 6.5 6.5 6.5 6.5 6.5 6.5 6.5 6.5 6.5 6.1 5.9 5.4 5.1 4.6 4.4 4.4 4.1 3.7 3.7 3.9 3.4 3.0 3.1 2.6 1.8 1.2 1.1 0.9 0.5 0.8 0.4 0.5 1.6 1.6 2.0 3.5 6.9 8.2 5.0 4.6 4.3 4.2 4.4 5.1 6.8 6.9 6.3 5.8
6.5 6.5 6.5 6.5 6.5 6.5 6.5 6.5 6.5 6.5 6.5 6.1 5.7 5.8 5.4 4.6 3.2 3.3 3.6 3.9 4.0 3.5 3.2 3.0 2.8 2.3 1.9 1.4 1.1 1.1 1.1 1.4 1.6 1.5 2.1 2.7 4.9 8.2 6.0 4.1 3.6 3.4 3.5 3.9 4.6 6.0 6.5 6.0 5.8
6.5 6.5 6.5 6.5 6.5 6.5 6.5 6.5 6.5 6.5 6.5 6.5 6.4 5.9 5.2 4.0 3.6 4.0 4.4 4.5 4.3 3.7 3.3 3.3 3.4 2.7 2.1 1.8 1.7 1.6 1.7 1.9 2.3 2.2 2.3 3.2 6.2 4.9 3.5 3.5 3.1 2.8 3.0 3.8 4.6 5.1 6.3 5.9 6.2
6.5 6.5 6.5 6.5 6.5 6.5 6.5 6.5 6.5 6.5 6.5 6.5 6.4 5.8 5.2 5.0 4.7 4.2 4.5 4.4 4.0 3.6 3.5 3.4 3.4 2.8 2.3 2.2 2.0 1.9 1.9 2.0 2.3 2.4 2.8 3.9 5.3 3.0 3.0 3.0 3.0 3.8 4.5 4.7 5.3 6.0 6.1 6.3 6.1
6.5 6.5 6.5 6.5 6.5 6.5 6.5 6.5 6.5 6.5 6.5 6.2 5.9 5.6 5.4 5.3 4.5 4.3 4.7 4.5 4.4 4.2 3.7 3.4 3.2 2.9 2.5 2.3 2.2 2.1 2.1 2.3 2.5 2.7 2.9 5.4 5.2 4.9 4.1 4.1 4.1 4.2 4.4 4.8 6.1 5.7 5.8 5.8 5.5
Wind_Speed
17 15 1 4 4 5 4 4 3 9 6 4 4 6 9 4 4 5 5 7 13 12 15 14 13 12 13 13 13 13 13 12 12 13 12 12 11 10 9 8 7 9 10 10 11 13 12 11 11
8 5 4 1 4 3 3 1 6 4 2 7 5 6 5 3 4 3 3 4 12 14 15 14 13 14 12 12 13 13 13 12 11 11 11 10 9 9 9 7 8 8 9 10 10 10 10 10 9
5 2 3 3 3 2 5 1 3 1 6 3 3 7 3 2 2 2 5 1 7 9 13 16 12 12 13 12 11 11 11 11 12 10 10 8 7 7 6 4 6 6 9 10 9 9 9 8 8
2 4 4 3 3 4 5 3 3 3 3 2 6 6 5 2 2 4 8 6 12 11 13 16 13 11 11 11 10 9 10 10 10 9 8 9 6 5 6 6 6 8 9 8 7 6 6 6 6
4 3 3 3 4 3 4 3 5 4 4 2 2 3 4 3 4 6 7 10 12 8 12 18 17 15 14 11 9 9 9 8 8 8 7 6 7 6 6 6 7 7 8 7 6 5 5 4 3
4 3 3 1 4 3 4 5 3 6 3 1 5 4 2 2 7 4 9 9 8 7 12 14 16 16 14 12 10 8 8 8 8 7 5 5 5 5 4 4 4 5 6 7 6 6 5 4 3
3 3 3 3 4 3 3 6 3 3 4 4 1 4 2 3 3 5 8 9 7 9 9 10 13 14 12 11 9 8 7 9 9 8 7 5 4 3 2 2 2 3 4 5 7 6 6 5 4
4 3 4 4 1 2 1 2 0 3 2 4 2 4 4 4 6 7 7 8 7 6 7 8 11 12 10 11 10 6 8 10 9 8 6 5 5 7 8 5 1 2 4 4 5 6 7 7 6
3 4 2 4 5 1 5 4 3 1 0 3 2 2 7 9 8 7 7 4 5 3 5 7 6 8 8 8 9 9 7 9 10 7 6 5 9 6 8 9 17 3 1 2 3 4 6 7 7
3 3 3 1 1 2 5 4 3 1 4 1 5 6 9 8 7 7 6 6 5 3 3 5 5 5 4 7 5 5 7 6 5 2 2 6 6 5 9 7 9 11 3 2 3 4 5 7 7
1 3 2 2 3 3 4 7 4 1 4 3 8 10 9 7 8 8 6 5 6 5 3 4 4 6 5 5 4 8 11 11 8 12 9 3 4 7 7 7 8 7 1 2 2 2 3 4 6
1 3 3 1 2 3 4 5 6 3 7 4 8 13 8 9 9 8 9 6 6 6 5 4 5 6 8 9 9 10 10 11 11 14 14 12 8 9 8 6 2 4 5 4 4 4 5 3 2
3 2 4 5 3 3 4 5 5 8 7 3 9 10 10 9 8 7 8 8 7 5 4 5 5 6 7 9 10 11 9 10 11 14 17 15 10 5 8 7 9 7 8 8 6 6 5 5 5
2 4 7 6 5 3 4 4 3 5 5 6 10 9 8 9 9 6 8 8 7 6 5 4 6 6 10 5 8 7 11 10 12 11 13 14 11 9 7 6 7 9 8 7 7 4 4 2 3
3 5 7 5 6 3 3 6 9 6 5 7 8 8 8 8 9 10 8 8 9 6 7 7 6 7 7 6 7 8 9 10 9 9 13 13 11 9 7 4 4 5 7 8 9 7 7 4 5
2 1 4 5 6 2 4 8 7 5 7 7 8 7 7 7 8 7 9 10 8 8 8 7 6 6 6 6 6 7 10 10 10 13 13 13 11 11 9 5 3 6 7 5 2 3 4 4 4
4 2 4 6 4 2 4 6 3 5 6 7 8 8 8 8 6 7 8 10 9 8 9 8 7 6 5 5 7 8 10 10 11 14 13 12 13 13 10 7 8 10 7 5 2 2 3 2 4
3 4 4 4 3 5 5 10 9 9 8 11 10 9 9 9 8 8 10 9 8 7 8 7 6 6 6 4 5 5 5 8 11 10 11 13 13 11 10 9 8 9 3 3 2 1 1 2 2
3 4 5 5 5 4 7 8 11 9 7 9 9 9 10 11 9 8 10 8 8 7 7 7 7 5 3 3 4 3 2 2 3 7 9 10 10 10 9 7 7 8 4 4 3 1 2 2 2
1 4 6 8 2 3 7 14 11 10 8 13 13 10 13 10 11 12 10 8 6 7 7 7 7 6 5 3 2 2 2 2 3 4 8 9 8 7 6 6 4 5 4 5 5 4 2 2 3
3 4 4 6 5 4 6 8 6 6 7 8 12 9 13 18 17 14 13 10 8 8 8 7 6 6 4 4 3 3 3 3 3 3 2 4 7 7 8 8 6 5 3 3 4 4 4 2 3
4 2 3 5 5 2 4 5 7 9 11 10 13 10 11 14 15 16 13 10 9 7 7 8 7 6 5 6 5 5 3 2 1 0 2 3 8 6 7 8 9 6 5 5 4 4 3 3 4
5 3 3 2 3 4 4 1 7 6 4 7 5 10 9 15 17 17 15 13 10 9 8 7 7 6 6 6 6 4 3 1 1 3 5 6 7 10 6 8 8 5 4 3 5 5 6 3 2
1 3 3 3 3 2 5 5 5 2 3 4 6 9 1 13 14 14 12 13 11 9 8 7 7 6 6 6 6 6 5 3 4 4 4 3 3 4 9 8 6 4 4 3 3 3 4 4 6
3 4 3 5 3 5 4 2 8 3 3 2 4 6 7 6 14 15 15 14 14 12 9 7 7 6 6 6 5 5 4 4 5 3 1 2 2 3 4 6 5 3 6 7 6 4 5 5 4
3 5 4 5 2 4 6 5 5 1 4 5 6 5 6 6 8 17 17 15 14 12 10 8 7 6 6 6 5 4 4 3 3 1 0 2 1 2 4 6 7 8 8 8 8 3 4 4 4
1 3 2 0 2 2 3 5 1 4 5 5 6 7 7 5 8 10 13 13 12 11 9 9 7 6 6 6 5 4 3 4 2 3 3 3 3 4 6 7 5 7 8 8 6 4 6 4 5
2 1 3 2 1 4 5 4 4 4 6 5 5 5 6 6 8 9 10 10 7 8 8 8 7 6 6 6 4 3 3 3 3 3 4 6 4 6 5 6 5 5 5 6 6 5 5 5 6
2 2 2 3 4 4 3 5 5 4 1 3 3 4 5 6 8 8 8 7 8 7 8 7 6 6 6 5 3 3 3 4 4 4 5 4 4 5 5 5 5 6 7 6 6 7 7 7 7
5 7 6 4 5 3 2 7 1 5 2 3 5 5 6 6 6 6 8 9 8 7 7 7 6 5 5 4 3 4 4 4 5 5 5 4 5 7 6 7 7 7 6 6 6 8 6 7 9
Wind_Direction
316 302 164 33 55 63 318 356 53 16 25 4 30 65 107 28 35 97 258 114 122 135 136 126 119 114 115 115 111 109 113 119 123 126 126 124 121 118 115 115 112 107 104 100 93 91 92 88 82
313 314 41 78 87 71 269 227 67 115 160 359 18 74 28 58 49 79 17 75 134 141 137 126 123 117 113 117 115 113 111 111 111 113 116 120 126 118 112 118 116 111 111 104 98 98 97 94 86
305 249 76 96 105 164 158 337 66 9 87 35 75 49 64 355 21 72 280 83 76 128 127 122 119 115 113 106 109 108 109 108 109 108 111 114 120 117 111 125 128 120 113 115 115 118 113 103 91
355 8 15 93 227 334 116 178 66 33 349 74 121 78 72 33 101 321 340 104 78 71 98 109 112 108 101 104 102 107 113 108 110 111 102 110 114 117 102 100 136 133 133 129 127 124 125 119 104
34 63 30 354 302 102 56 79 56 351 312 81 88 140 110 65 39 43 44 88 96 76 78 97 99 94 92 93 99 113 116 120 120 116 116 111 115 112 106 109 132 140 148 147 145 139 137 133 122
17 90 47 344 312 68 26 11 32 8 311 261 78 116 95 85 72 26 78 75 69 96 85 93 95 95 92 88 91 99 114 124 126 123 121 123 123 113 114 115 121 146 160 166 169 166 168 167 169
83 63 228 291 307 47 23 341 65 326 358 346 220 83 106 37 78 107 79 84 66 69 79 88 97 92 95 101 101 99 125 131 119 115 112 118 127 132 125 120 143 169 170 181 186 188 193 197 203
99 94 318 324 297 102 306 29 246 55 291 300 33 131 180 196 120 108 76 85 81 70 88 79 87 100 94 91 83 93 119 124 108 84 86 80 96 79 50 15 127 201 190 191 205 206 215 214 219
72 66 327 322 18 35 350 36 320 194 60 61 52 112 134 137 111 97 98 84 92 103 110 110 110 106 107 95 87 82 129 91 75 70 77 91 65 74 93 44 334 255 213 226 231 222 229 234 237
83 106 217 349 80 13 341 27 314 332 342 176 74 82 127 125 118 119 126 126 106 94 66 110 135 124 133 133 113 86 109 119 72 264 263 125 125 132 136 119 243 271 241 256 264 263 250 244 241
348 194 315 18 110 48 317 333 299 94 299 217 183 165 156 149 152 143 145 131 129 123 83 62 67 111 108 59 77 88 102 109 104 65 56 83 89 107 172 196 222 249 315 2 234 317 264 255 247
73 295 288 277 80 29 314 317 329 252 234 162 152 166 159 164 171 155 134 127 108 95 111 83 71 70 61 78 75 78 75 77 57 50 55 56 58 65 60 63 39 43 9 36 25 17 338 295 288
166 300 341 328 182 218 263 272 243 276 254 243 126 159 164 171 162 147 138 123 120 106 98 89 76 77 78 70 67 62 65 75 75 61 53 52 45 38 38 28 36 34 37 36 22 24 29 5 343
282 301 285 271 230 231 210 259 14 268 218 163 132 167 177 166 148 122 128 133 130 127 101 88 80 81 76 68 66 56 61 71 69 64 63 59 55 42 31 19 18 18 19 22 10 354 336 335 322
294 313 313 249 207 222 107 299 235 205 134 157 155 175 177 168 144 151 152 145 145 142 125 94 80 76 76 74 67 57 54 66 60 66 62 55 53 48 38 27 10 15 9 13 5 0 23 11 347
284 47 346 304 137 196 101 275 311 196 155 187 182 195 166 170 164 156 149 145 145 137 131 110 91 71 71 77 79 66 56 61 63 67 57 45 48 39 34 23 7 358 5 9 27 20 13 19 0
352 267 262 311 204 119 179 252 271 179 177 208 205 191 168 160 151 145 148 144 151 146 137 121 116 112 94 88 88 71 63 53 59 56 47 44 41 38 28 12 1 9 6 4 329 18 67 9 328
298 309 308 274 277 201 240 255 265 256 215 215 203 187 174 169 167 166 145 145 139 141 130 129 126 121 105 88 80 58 61 55 58 51 47 47 37 33 24 16 10 16 11 18 350 323 301 217 276
258 257 264 268 259 219 242 258 268 266 232 222 218 196 185 176 168 154 148 138 135 133 124 121 107 99 89 76 100 69 63 39 46 43 52 44 30 30 34 19 13 12 14 348 6 353 279 324 262
264 285 277 285 186 200 270 273 257 250 227 211 207 196 192 167 156 155 147 132 143 145 133 123 115 103 98 102 111 131 139 95 88 46 50 31 22 27 29 28 14 15 10 3 359 25 338 282 291
269 230 277 257 329 304 321 290 286 275 243 213 220 197 183 174 163 160 154 145 139 139 137 122 111 106 94 84 83 64 63 61 37 16 17 358 28 37 34 26 24 12 18 2 350 347 347 291 314
288 330 318 320 37 220 63 287 302 287 294 215 204 198 175 179 168 161 153 144 144 144 131 123 122 111 92 83 71 81 97 97 331 3 356 18 26 43 49 42 24 11 2 1 349 346 334 349 332
229 329 295 322 321 28 279 78 270 298 333 348 223 202 176 170 168 163 158 150 143 136 136 132 123 112 105 95 98 92 82 69 9 20 37 13 11 23 22 54 31 22 18 4 11 0 352 334 304
93 315 319 56 85 350 246 167 284 325 309 353 18 27 164 166 164 154 143 138 134 132 131 133 130 127 116 105 100 100 97 79 66 40 34 11 358 355 353 12 5 344 315 308 317 331 340 333 324
71 65 331 346 354 240 307 112 252 280 331 33 4 358 11 168 153 145 144 147 144 140 139 141 138 133 125 113 107 111 112 104 108 99 50 5 353 351 321 343 347 339 328 317 277 268 311 318 308
203 153 154 243 236 273 322 255 289 355 37 17 10 354 20 78 165 157 157 151 144 141 142 137 141 134 125 114 99 90 101 99 136 161 344 315 284 314 329 356 342 337 339 330 318 307 308 274 267
188 186 205 62 288 28 241 293 40 44 24 24 8 12 5 40 143 143 141 141 139 140 139 142 139 132 121 110 97 75 74 91 93 54 35 328 326 8 6 352 350 358 354 338 320 313 296 285 277
170 283 44 13 291 269 279 241 236 351 350 7 37 18 20 79 98 117 125 129 131 129 127 127 133 137 126 111 100 87 71 63 59 71 26 343 17 19 356 351 357 348 333 326 327 313 291 281 280
104 259 201 151 165 201 284 259 205 173 349 359 95 71 73 77 103 111 119 120 120 116 117 122 130 130 124 117 105 82 47 41 27 55 20 333 32 10 353 342 341 333 328 320 311 299 294 289 285
177 192 165 143 260 236 187 272 183 149 139 136 136 121 115 111 107 118 133 134 130 128 123 130 133 133 134 128 106 75 67 44 40 42 4 350 7 342 339 341 334 321 311 303 306 302 303 302 293